Snowfall_Accumulation
0.0 0.0 0.0 0.0 0.0 0.0 0.0 0.0 0.1 0.2 0.0 0.0 0.0 0.0 0.0 0.0 0.0 0.0 0.0 0.0 0.0 0.0 0.0 0.0 0.0 0.0 0.0 0.0 0.0 0.0 0.0 0.0 0.0 0.0 0.0 0.0 0.0 0.0
0.0 0.0 0.0 0.0 0.0 0.0 0.0 0.0 0.0 0.1 0.2 0.0 0.0 0.0 0.0 0.0 0.0 0.0 0.0 0.0 0.0 0.0 0.1 0.1 0.1 0.1 0.1 0.0 0.0 0.0 0.0 0.0 0.0 0.0 0.0 0.0 0.0 0.0
0.0 0.0 0.0 0.1 0.0 0.0 0.0 0.0 0.1 0.1 0.2 0.1 0.1 0.1 0.1 0.0 0.0 0.0 0.0 0.0 0.0 0.1 0.1 0.1 0.1 0.1 0.1 0.1 0.1 0.1 0.0 0.0 0.0 0.0 0.0 0.0 0.0 0.0
0.0 0.0 0.1 0.1 0.0 0.1 0.0 0.2 0.1 0.3 0.7 0.8 0.3 0.2 0.1 0.1 0.0 0.0 0.0 0.0 0.0 0.0 0.1 0.2 0.2 0.2 0.2 0.2 0.2 0.1 0.1 0.0 0.0 0.0 0.0 0.0 0.0 0.0
0.1 0.1 0.1 0.1 0.1 0.1 0.2 0.2 0.3 0.4 0.6 0.9 0.5 0.1 0.1 0.0 0.1 0.0 0.0 0.0 0.0 0.0 0.0 0.1 0.1 0.2 0.3 0.3 0.3 0.2 0.2 0.2 0.1 0.1 0.1 0.0 0.0 0.0
0.3 0.3 0.5 0.4 0.5 0.4 0.4 0.5 0.7 0.8 0.9 1.2 1.4 1.0 0.7 0.3 0.3 0.2 0.1 0.1 0.1 0.1 0.1 0.0 0.1 0.2 0.2 0.2 0.2 0.3 0.3 0.3 0.4 0.3 0.3 0.2 0.1 0.1
0.3 0.3 0.3 0.2 0.2 0.2 0.4 0.7 0.9 1.3 2.1 2.5 2.3 1.6 0.9 0.7 0.6 0.5 0.7 0.4 0.3 0.1 0.1 0.1 0.1 0.1 0.1 0.1 0.1 0.1 0.2 0.4 0.5 0.5 0.5 0.3 0.2 0.1
0.2 0.5 0.4 0.4 0.3 0.2 0.4 0.7 1.5 2.3 3.2 3.4 3.2 2.1 1.0 0.7 0.7 0.9 1.3 2.1 1.7 0.4 0.4 0.4 0.2 0.2 0.1 0.1 0.1 0.2 0.4 0.7 0.8 0.9 0.7 0.5 0.3 0.2
0.6 0.6 0.5 0.4 0.5 0.4 0.4 0.8 1.4 1.8 2.2 2.5 2.3 1.4 1.0 0.8 1.8 3.0 3.0 3.4 2.6 0.9 0.8 1.0 0.3 0.4 0.2 0.2 0.2 0.3 0.4 0.6 0.7 0.8 0.7 0.5 0.5 0.4
0.6 0.5 0.5 0.5 0.4 0.6 1.1 1.6 1.1 0.6 0.6 0.6 0.8 0.9 1.0 1.2 2.5 4.5 4.5 3.5 1.7 0.6 0.6 1.8 0.6 0.4 0.2 0.2 0.2 0.3 0.4 0.5 0.8 0.9 0.9 0.7 0.6 0.5
0.4 0.4 0.5 0.4 0.5 1.5 2.4 2.2 1.0 0.3 0.1 0.4 0.7 0.8 0.7 0.8 1.1 3.3 4.6 5.0 3.6 1.0 0.6 1.6 1.1 1.0 0.6 0.5 0.2 0.4 0.8 0.7 1.0 0.9 0.9 0.9 0.7 0.6
0.6 0.5 0.5 0.5 1.1 2.1 2.3 1.9 1.2 0.5 0.8 0.5 0.3 0.1 0.2 0.3 0.5 2.4 6.1 9.7 7.4 4.1 1.1 2.1 2.5 2.9 3.8 1.4 1.4 1.1 1.0 1.0 1.0 0.8 1.0 0.9 1.0 1.1
1.0 0.7 0.3 0.9 1.7 1.9 1.6 0.9 1.1 1.8 1.5 0.6 0.4 0.3 0.3 0.3 0.4 1.0 3.3 9.7 12.6 7.9 2.0 5.6 6.9 4.3 7.4 5.4 2.4 1.6 1.7 2.0 1.7 1.2 1.0 1.0 1.0 1.2
1.2 0.7 0.8 1.5 1.5 1.1 0.8 0.8 1.2 1.0 0.7 0.9 0.8 0.9 1.0 1.0 1.4 1.6 2.4 4.3 7.2 8.4 5.2 7.8 12.1 8.9 10.8 8.4 4.0 2.9 1.5 2.5 3.3 2.3 1.5 0.9 0.7 0.8
1.0 1.2 1.3 1.1 0.9 0.9 0.7 0.9 1.1 1.2 1.7 2.6 2.2 1.8 1.7 2.1 2.3 3.0 3.3 3.5 4.0 4.6 6.3 6.5 9.3 10.0 11.9 11.2 7.8 6.4 6.7 4.0 4.0 3.9 2.6 1.7 1.0 0.9
1.2 1.1 0.8 0.6 0.7 1.0 0.9 1.2 1.2 2.0 3.4 4.8 4.3 3.2 3.0 3.6 4.9 6.1 7.3 7.8 9.5 8.3 7.2 6.8 7.0 9.8 11.4 8.9 9.6 9.2 9.2 9.7 6.7 5.1 3.9 2.7 1.3 1.0
1.5 0.8 0.8 0.9 0.9 1.1 1.2 1.3 1.5 2.0 3.6 4.7 5.4 6.0 6.0 7.1 8.8 10.4 11.4 11.2 11.0 9.5 7.6 6.0 5.4 5.7 7.2 7.9 8.7 8.6 9.3 9.4 7.3 4.7 4.6 4.7 2.2 1.4
1.0 1.0 1.1 1.3 1.5 1.7 1.9 1.9 2.0 2.8 4.6 6.2 7.3 8.4 10.4 11.1 11.4 11.2 11.6 11.7 10.7 8.4 6.9 5.6 5.3 5.5 4.9 4.5 6.5 9.0 9.5 9.6 6.2 5.3 5.3 6.5 5.1 2.6
1.3 1.5 1.5 1.8 2.0 2.4 2.7 3.5 3.4 3.6 5.6 7.9 10.0 11.8 12.9 13.2 12.8 12.1 10.8 9.7 8.2 6.3 5.5 4.6 5.2 9.1 9.8 6.4 4.6 6.8 11.4 11.5 7.4 5.6 5.2 5.7 5.8 3.7
2.0 3.0 3.1 2.7 2.9 3.4 4.1 5.1 6.0 6.5 7.6 10.1 11.4 12.8 14.1 14.6 13.2 11.0 9.1 8.1 7.1 5.5 4.0 3.1 4.2 8.7 14.0 12.8 9.9 8.1 8.0 11.8 12.7 10.7 6.1 3.8 3.3 2.1
3.3 3.8 4.1 3.7 3.5 4.7 5.5 6.9 8.6 10.2 10.8 12.4 13.0 13.9 14.3 14.1 11.6 8.4 6.8 5.3 5.4 5.5 5.3 4.0 3.6 4.8 8.4 11.0 9.8 7.3 8.3 6.8 8.8 13.5 12.7 10.6 8.0 5.6
2.6 3.3 3.7 3.9 4.3 5.7 6.8 8.3 10.0 11.0 12.2 13.1 13.9 14.0 12.9 11.5 9.5 6.5 5.5 5.5 5.3 5.1 4.8 3.9 3.0 3.6 6.3 9.8 9.1 7.0 7.4 7.4 5.2 3.9 5.9 9.7 16.3 16.7
2.9 3.6 4.4 4.7 5.6 6.9 8.6 9.7 10.5 11.5 12.9 14.2 14.1 12.5 10.7 8.5 6.4 5.8 5.6 5.6 5.6 5.1 4.6 4.3 3.9 3.9 4.8 6.6 7.7 7.0 6.3 5.9 5.4 5.7 7.6 4.5 4.7 5.6